Tracking 32932 objects as of 14-Jan-2026
HD Live streaming from Space Station
objects crossing your sky now

BREEZE-M DEB (TANK)

Track BREEZE-M DEB (TANK) now!
10-day predictions


NORAD ID: 28395
Int'l Code: 2004-031C
Perigee: 303.9 km
Apogee: 14,475.9 km
Inclination: 49.4 °
Period: 267.7 minutes
Semi major axis: 13760 km
RCS: 6.5834 m2 (large)
Launch date: August 4, 2004
Source: Commonwealth of Independent States (former USSR) (CIS)
Launch site: TYURATAM MISSILE AND SPACE COMPLEX (TTMTR)

Note: This is SATELLITE DEBRIS
Your satellite tracking list
Your tracking list is empty




NASA's NSSDC Master Catalog

Two Line Element Set (TLE):
1 28395U 04031C   26013.57816260  .00003264  00000-0  50390-3 0  9997
2 28395  49.4298 208.7978 5149400 323.4441  10.5411  5.37815148396372
Source of the keplerian elements: AFSPC